[[{"header":{"parameterUnit":"m.s-1","parameterCategory":1,"la1":30.2992,"la2":30.254,"lo1":-89.0895,"lo2":-89.0443,"dy":0.0025,"dx":0.0025,"nx":19,"ny":19,"refTime":"2026-04-08T09:00:00:Z","depth":0,"parameterNumber":2,"parameterNumberName":"U-component_of_WINDS"},"data":[0,0,0,-0.0721,-0.0721,-0.0741,-0.0741,-0.0764,-0.0764,0,0,0,0,0,0,0,0,0,0,0,-0.0713,-0.0713,-0.0721,-0.0721,-0.0741,-0.0741,-0.0764,-0.0764,0,0,0,0,0,0,0,0,0,0,0,-0.0713,-0.0713,-0.0713,-0.0721,-0.0741,-0.0741,-0.0764,-0.075,0,0,0,0,0,0,0,0,0,0,-0.0731,-0.0722,-0.0713,-0.0713,-0.0721,-0.0741,-0.0741,-0.0749,-0.0751,-0.0754,0,-0.0756,0,-0.076,-0.0766,-0.0766,0,0,0,-0.0723,-0.0721,-0.0728,-0.0713,-0.0721,-0.0741,-0.0732,-0.075,-0.0752,-0.0756,-0.0756,-0.0757,-0.0761,-0.0766,-0.0766,-0.0777,-0.0777,0,0,-0.0722,-0.0715,-0.0726,-0.0729,-0.0725,-0.0732,-0.0733,-0.0751,-0.0751,-0.0756,-0.0757,-0.0761,-0.0766,-0.0766,-0.0777,-0.0777,0,0,0,-0.0717,-0.0715,-0.0721,-0.0728,-0.0731,-0.0732,-0.0734,-0.075,-0.0753,-0.0758,-0.0761,-0.0766,-0.0766,-0.0777,-0.0777,-0.077,0,0,0,-0.0717,-0.0712,-0.0721,-0.0717,-0.0731,-0.0741,-0.0732,-0.0752,-0.0754,-0.0761,-0.0766,-0.0766,-0.0777,-0.0777,-0.077,-0.0767,0,0,0,-0.0712,-0.0712,-0.0714,-0.0717,-0.0725,-0.0741,-0.0744,-0.0752,-0.0756,-0.0766,-0.0766,-0.0777,-0.0777,-0.077,-0.0768,-0.0769,0,0,0,-0.0706,-0.0707,-0.0713,-0.0716,-0.0725,-0.0736,-0.0744,-0.0753,-0.076,-0.0766,-0.0777,-0.0777,-0.077,-0.0768,-0.0769,-0.0768,-0.0767,0,0,-0.0704,-0.0707,-0.0709,-0.0715,-0.0723,-0.0733,-0.0741,-0.0754,-0.076,-0.0771,-0.0772,-0.077,-0.0768,-0.0769,-0.0764,-0.0763,0,0,0,-0.0706,-0.0708,-0.0711,-0.0718,-0.0727,-0.0735,-0.0748,-0.0753,-0.0762,-0.0764,-0.077,-0.0769,-0.077,-0.077,-0.077,-0.0771,-0.0777,-0.0777,-0.0777,-0.0695,-0.0703,-0.0708,-0.0718,-0.0725,-0.0737,-0.0744,-0.0752,-0.0759,-0.0761,-0.0764,-0.076,-0.076,-0.0759,-0.0761,-0.0764,-0.0764,-0.0764,-0.0764,-0.0693,-0.0697,-0.0706,-0.0713,-0.0722,-0.0729,-0.0742,-0.0746,-0.0754,-0.0758,-0.0759,-0.0763,-0.0758,-0.076,-0.0764,-0.0764,-0.0764,-0.0764,-0.0764,-0.0687,-0.069,-0.0696,-0.0706,-0.0713,-0.0725,-0.0732,-0.074,-0.0748,-0.0749,-0.0754,-0.0754,-0.0755,-0.0751,-0.0751,-0.0751,-0.0751,-0.0751,-0.0751,-0.0678,-0.0685,-0.069,-0.07,-0.0705,-0.0714,-0.0727,-0.0732,-0.0741,-0.0747,-0.0747,-0.0754,-0.0756,-0.0757,-0.075,-0.075,-0.075,-0.075,-0.075,-0.0674,-0.0676,-0.0684,-0.0689,-0.0702,-0.0709,-0.0719,-0.073,-0.0737,-0.074,-0.0747,-0.0747,-0.0751,-0.0751,-0.0752,-0.0745,-0.0745,-0.0745,-0.0745,-0.0669,-0.0671,-0.0681,-0.0689,-0.0698,-0.0708,-0.0717,-0.0727,-0.0738,-0.0743,-0.0745,-0.0746,-0.0747,-0.075,-0.0751,-0.0751,-0.0744,-0.0744,-0.0744,-0.0667,-0.0671,-0.0676,-0.0686,-0.0697,-0.0707,-0.0716,-0.0725,-0.0738,-0.0744,-0.0747,-0.0747,-0.0749,-0.0749,-0.0755,-0.0756,-0.0757,0,0]},{"header":{"parameterUnit":"m.s-1","parameterCategory":1,"la1":30.2992,"la2":30.254,"lo1":-89.0895,"lo2":-89.0443,"dy":0.0025,"dx":0.0025,"nx":19,"ny":19,"refTime":"2026-04-08T09:00:00:Z","depth":0,"parameterNumber":3,"parameterNumberName":"V-component_of_WINDS"},"data":[0,0,0,-1.668,-1.6682,-1.6784,-1.6784,-1.6902,-1.6902,0,0,0,0,0,0,0,0,0,0,0,-1.6642,-1.6643,-1.6679,-1.6682,-1.6784,-1.6784,-1.6901,-1.6902,0,0,0,0,0,0,0,0,0,0,0,-1.6642,-1.6642,-1.6643,-1.6682,-1.6784,-1.6784,-1.6901,-1.6829,0,0,0,0,0,0,0,0,0,0,-1.6732,-1.669,-1.6642,-1.6643,-1.6683,-1.6784,-1.6784,-1.6825,-1.6833,-1.685,0,-1.6863,0,-1.6885,-1.691,-1.691,0,0,0,-1.6687,-1.6683,-1.6718,-1.6643,-1.6684,-1.6783,-1.6739,-1.683,-1.6839,-1.686,-1.6865,-1.687,-1.6887,-1.691,-1.6911,-1.6991,-1.6991,0,0,-1.6681,-1.6656,-1.6712,-1.6723,-1.6707,-1.6736,-1.6742,-1.6835,-1.6839,-1.6866,-1.6873,-1.6889,-1.6911,-1.6912,-1.6991,-1.6991,0,0,0,-1.6662,-1.6652,-1.6684,-1.6718,-1.6737,-1.6739,-1.6746,-1.6835,-1.6847,-1.6874,-1.689,-1.6912,-1.6913,-1.6991,-1.6991,-1.6973,0,0,0,-1.6659,-1.6641,-1.6682,-1.6667,-1.6735,-1.6787,-1.6743,-1.6841,-1.6852,-1.6889,-1.6912,-1.6914,-1.6991,-1.6991,-1.6973,-1.6968,0,0,0,-1.6638,-1.6638,-1.6651,-1.6665,-1.6709,-1.6787,-1.6805,-1.6844,-1.6862,-1.691,-1.6914,-1.699,-1.6991,-1.6973,-1.6969,-1.6982,0,0,0,-1.6608,-1.6632,-1.665,-1.6683,-1.6708,-1.6775,-1.6805,-1.6856,-1.6895,-1.6912,-1.6991,-1.6991,-1.6973,-1.6969,-1.6982,-1.6989,-1.699,0,0,-1.6625,-1.6633,-1.6655,-1.6674,-1.6731,-1.6761,-1.6816,-1.6876,-1.6903,-1.696,-1.6962,-1.6973,-1.6969,-1.6982,-1.7001,-1.7001,0,0,0,-1.6652,-1.6667,-1.6688,-1.6724,-1.6771,-1.681,-1.6864,-1.6886,-1.6936,-1.6927,-1.6982,-1.6981,-1.6989,-1.6994,-1.6994,-1.7003,-1.6992,-1.6992,-1.6992,-1.6638,-1.6673,-1.6711,-1.6758,-1.6793,-1.6849,-1.688,-1.6919,-1.6943,-1.6955,-1.6972,-1.698,-1.6984,-1.6984,-1.6993,-1.6979,-1.6979,-1.6979,-1.6979,-1.6666,-1.6693,-1.6725,-1.6773,-1.6809,-1.685,-1.6905,-1.692,-1.6963,-1.697,-1.6979,-1.6983,-1.6983,-1.6993,-1.6978,-1.6978,-1.6978,-1.6978,-1.6978,-1.6661,-1.668,-1.6707,-1.6764,-1.6804,-1.685,-1.689,-1.6922,-1.6951,-1.6961,-1.6982,-1.6982,-1.6987,-1.6969,-1.6969,-1.6969,-1.6969,-1.6969,-1.6969,-1.6645,-1.6676,-1.6707,-1.6759,-1.6787,-1.6827,-1.6884,-1.6912,-1.6951,-1.697,-1.6971,-1.6993,-1.6977,-1.6972,-1.6969,-1.6969,-1.6969,-1.6969,-1.6969,-1.666,-1.6662,-1.6709,-1.6737,-1.6801,-1.6838,-1.6878,-1.6932,-1.696,-1.6979,-1.7,-1.6983,-1.6994,-1.6994,-1.699,-1.6992,-1.6992,-1.6992,-1.6992,-1.6656,-1.6665,-1.672,-1.6763,-1.6809,-1.6849,-1.6901,-1.6945,-1.699,-1.701,-1.7014,-1.7012,-1.701,-1.7022,-1.7022,-1.7019,-1.7028,-1.7028,-1.7028,-1.6667,-1.6682,-1.672,-1.6766,-1.6818,-1.6862,-1.6912,-1.6959,-1.7011,-1.703,-1.7025,-1.7024,-1.7021,-1.7018,-1.7037,-1.7035,-1.7031,0,0]}]]